Location: Ab? ar R?sh Ba?r?
(24.1861°N, 32.8847°E)
Time: 09:55:22
(UTC+00:00)

Cosmos 1328 - Pass Details

Date: 24 October 2021
Orbit: 529 x 552 km, 82.5° (Epoch: 03 December)

Event Time Altitude Azimuth Distance (km) Brightness Sun altitude
Rises 15:48:52 0° 1° (N) 2,724 7.3 -8.5°
Reaches altitude 10° 15:51:04 10° 6° (N) 1,828 6.3 -9.0°
Maximum altitude 15:55:01 54° 84° (E) 673 3.9 -9.9°
Drops below altitude 10° 15:58:56 10° 162° (SSE) 1,816 6.4 -10.8°
Sets 16:01:07 0° 166° (SSE) 2,704 7.3 -11.3°
